When you browse on this site, cookies collect data to enhance your experience and personalize the content and advertising you see.
Visit our Privacy Policy to learn more. By continuing to use the site, you agree to this use of cookies and data.

Hourly Weather Novoe Zhukovo

Today, 10 July, Friday

Time Temperature Precipitation Wind Pressure Humidity
00:00 +12°C° 0 mm 2 mps 738 mmHg 93%
01:00 +12°C° 0 mm 2 mps 739 mmHg 94%
02:00 +10°C° 0 mm 2 mps 739 mmHg 94%
03:00 +12°C° 0 mm 2 mps 739 mmHg 93%
04:00 +12°C° 0 mm 2 mps 739 mmHg 92%
05:00 +12°C° 0 mm 2 mps 740 mmHg 91%
06:00 +14°C° 0 mm 1 mps 740 mmHg 85%
07:00 +15°C° 0 mm 1 mps 740 mmHg 79%
08:00 +18°C° 0 mm 1 mps 741 mmHg 73%
09:00 +19°C° 0 mm 1 mps 741 mmHg 69%
10:00 +19°C° 0 mm 2 mps 741 mmHg 65%
11:00 +20°C° 0 mm 2 mps 741 mmHg 60%
12:00 +20°C° 0 mm 2 mps 741 mmHg 59%
13:00 +21°C° 0 mm 2 mps 741 mmHg 58%
14:00 +21°C° 0 mm 2 mps 741 mmHg 57%
15:00 +21°C° 0 mm 2 mps 741 mmHg 61%
16:00 +21°C° 0 mm 2 mps 741 mmHg 65%
17:00 +21°C° 0 mm 2 mps 740 mmHg 68%
18:00 +19°C° 0 mm 2 mps 741 mmHg 72%
19:00 +18°C° 0 mm 2 mps 741 mmHg 75%
20:00 +16°C° 0 mm 2 mps 741 mmHg 78%
21:00 +16°C° 0 mm 2 mps 741 mmHg 79%
22:00 +15°C° 0 mm 2 mps 741 mmHg 80%
23:00 +15°C° 0 mm 2 mps 741 mmHg 82%

Tomorrow, 11 July, Saturday

Time Temperature Precipitation Wind Pressure Humidity
00:00 +14°C° 0 mm 2 mps 741 mmHg 82%
01:00 +13°C° 0 mm 3 mps 741 mmHg 83%
02:00 +13°C° 0 mm 3 mps 741 mmHg 84%
03:00 +13°C° 0 mm 3 mps 741 mmHg 84%
04:00 +13°C° 0 mm 3 mps 741 mmHg 85%
05:00 +14°C° 0 mm 3 mps 741 mmHg 86%
06:00 +16°C° 0 mm 3 mps 741 mmHg 82%
07:00 +18°C° 0 mm 4 mps 741 mmHg 78%
08:00 +20°C° 0 mm 4 mps 742 mmHg 75%
09:00 +21°C° 0 mm 4 mps 742 mmHg 73%
10:00 +22°C° 0 mm 5 mps 741 mmHg 72%
11:00 +23°C° 0 mm 5 mps 741 mmHg 70%
12:00 +23°C° 0 mm 5 mps 741 mmHg 70%
13:00 +25°C° 0 mm 5 mps 741 mmHg 70%
14:00 +25°C° 0 mm 5 mps 741 mmHg 70%
15:00 +25°C° 0 mm 4 mps 740 mmHg 72%
16:00 +25°C° 0 mm 4 mps 740 mmHg 74%
17:00 +25°C° 0 mm 3 mps 740 mmHg 76%
18:00 +22°C° 0 mm 3 mps 740 mmHg 79%
19:00 +21°C° 0 mm 3 mps 740 mmHg 83%
20:00 +19°C° 0 mm 2 mps 740 mmHg 86%
21:00 +19°C° 0 mm 2 mps 740 mmHg 87%
22:00 +18°C° 0 mm 2 mps 740 mmHg 87%
23:00 +18°C° 0 mm 2 mps 740 mmHg 88%

Day after tomorrow, 12 July, Sunday

Time Temperature Precipitation Wind Pressure Humidity
00:00 +17°C° 0 mm 2 mps 740 mmHg 88%
01:00 +17°C° 0 mm 2 mps 739 mmHg 88%
02:00 +17°C° 0 mm 2 mps 739 mmHg 89%
03:00 +17°C° 0 mm 2 mps 739 mmHg 88%
04:00 +17°C° 0 mm 2 mps 739 mmHg 88%
05:00 +17°C° 0 mm 2 mps 739 mmHg 87%
06:00 +19°C° 0 mm 2 mps 739 mmHg 83%
07:00 +21°C° 0 mm 2 mps 739 mmHg 78%
08:00 +23°C° 0 mm 2 mps 739 mmHg 74%
09:00 +24°C° 0 mm 2 mps 739 mmHg 70%
10:00 +25°C° 0 mm 2 mps 738 mmHg 67%
11:00 +26°C° 0 mm 3 mps 738 mmHg 64%
12:00 +26°C° 0 mm 3 mps 738 mmHg 63%
13:00 +26°C° 0 mm 3 mps 738 mmHg 62%
14:00 +27°C° 0 mm 3 mps 737 mmHg 62%
15:00 +26°C° 0 mm 2 mps 737 mmHg 64%
16:00 +26°C° 0 mm 2 mps 736 mmHg 66%
17:00 +26°C° 0 mm 2 mps 736 mmHg 69%
18:00 +24°C° 0 mm 2 mps 736 mmHg 72%
19:00 +21°C° 0 mm 2 mps 735 mmHg 75%
20:00 +20°C° 0 mm 2 mps 735 mmHg 78%
21:00 +19°C° 0 mm 2 mps 735 mmHg 79%
22:00 +18°C° 0 mm 2 mps 735 mmHg 81%
23:00 +18°C° 0 mm 2 mps 735 mmHg 82%

13 July, Monday

Time Temperature Precipitation Wind Pressure Humidity
00:00 +17°C° 0 mm 2 mps 734 mmHg 82%
01:00 +17°C° 0 mm 2 mps 734 mmHg 83%
02:00 +16°C° 0 mm 2 mps 733 mmHg 83%
03:00 +17°C° 0 mm 2 mps 733 mmHg 84%
04:00 +17°C° 0 mm 2 mps 733 mmHg 85%
05:00 +17°C° 0 mm 2 mps 732 mmHg 85%
06:00 +19°C° 0 mm 3 mps 732 mmHg 82%
07:00 +20°C° 0 mm 3 mps 732 mmHg 79%
08:00 +22°C° 0 mm 4 mps 732 mmHg 76%
09:00 +24°C° 0 mm 3 mps 732 mmHg 74%
10:00 +25°C° 0 mm 3 mps 731 mmHg 71%
11:00 +26°C° 0 mm 3 mps 731 mmHg 68%
12:00 +24°C° 2.3 mm 3 mps 731 mmHg 76%
13:00 +22°C° 2.3 mm 4 mps 730 mmHg 83%
14:00 +21°C° 2.3 mm 5 mps 730 mmHg 90%
15:00 +21°C° 1.1 mm 4 mps 729 mmHg 91%
16:00 +20°C° 1.1 mm 4 mps 729 mmHg 92%
17:00 +19°C° 1.1 mm 3 mps 728 mmHg 92%
18:00 +19°C° 0.3 mm 3 mps 728 mmHg 93%
19:00 +19°C° 0.3 mm 3 mps 728 mmHg 94%
20:00 +18°C° 0.3 mm 2 mps 727 mmHg 96%
21:00 +18°C° 0.6 mm 2 mps 727 mmHg 96%
22:00 +18°C° 0.6 mm 2 mps 727 mmHg 96%
23:00 +18°C° 0.6 mm 2 mps 726 mmHg 97%

14 July, Tuesday

Time Temperature Precipitation Wind Pressure Humidity
00:00 +18°C° 0.7 mm 2 mps 726 mmHg 97%
01:00 +18°C° 0.7 mm 3 mps 726 mmHg 97%
02:00 +18°C° 0.7 mm 3 mps 726 mmHg 98%
03:00 +18°C° 0 mm 4 mps 726 mmHg 97%
04:00 +18°C° 0 mm 4 mps 726 mmHg 97%
05:00 +18°C° 0 mm 4 mps 726 mmHg 96%
06:00 +18°C° 0 mm 4 mps 726 mmHg 95%
07:00 +18°C° 0 mm 4 mps 726 mmHg 94%
08:00 +18°C° 0 mm 4 mps 727 mmHg 92%
09:00 +19°C° 0.1 mm 4 mps 727 mmHg 89%
10:00 +20°C° 0.1 mm 4 mps 727 mmHg 86%
11:00 +20°C° 0.1 mm 4 mps 727 mmHg 82%
12:00 +20°C° 0.4 mm 4 mps 727 mmHg 83%
13:00 +20°C° 0.4 mm 5 mps 727 mmHg 84%
14:00 +20°C° 0.4 mm 6 mps 727 mmHg 84%
15:00 +20°C° 0.2 mm 6 mps 726 mmHg 84%
16:00 +19°C° 0.2 mm 6 mps 726 mmHg 84%
17:00 +17°C° 0.2 mm 6 mps 726 mmHg 84%
18:00 +16°C° 0.1 mm 6 mps 726 mmHg 86%
19:00 +15°C° 0.1 mm 5 mps 726 mmHg 88%
20:00 +14°C° 0.1 mm 5 mps 727 mmHg 90%
21:00 +14°C° 0.1 mm 5 mps 726 mmHg 90%
22:00 +14°C° 0.1 mm 5 mps 726 mmHg 90%
23:00 +14°C° 0.1 mm 6 mps 726 mmHg 91%

15 July, Wednesday

Time Temperature Precipitation Wind Pressure Humidity
00:00 +13°C° 0.4 mm 6 mps 726 mmHg 92%
01:00 +13°C° 0.4 mm 6 mps 726 mmHg 93%
02:00 +13°C° 0.4 mm 6 mps 726 mmHg 94%
03:00 +13°C° 0 mm 5 mps 726 mmHg 94%
04:00 +13°C° 0 mm 5 mps 726 mmHg 94%
05:00 +13°C° 0 mm 5 mps 726 mmHg 95%
06:00 +13°C° 0 mm 5 mps 727 mmHg 94%
07:00 +14°C° 0 mm 6 mps 727 mmHg 92%
08:00 +14°C° 0 mm 6 mps 727 mmHg 91%
09:00 +14°C° 0.1 mm 7 mps 727 mmHg 91%
10:00 +14°C° 0.1 mm 7 mps 728 mmHg 91%
11:00 +13°C° 0.1 mm 8 mps 728 mmHg 91%
12:00 +12°C° 0.2 mm 8 mps 729 mmHg 92%
13:00 +12°C° 0.2 mm 8 mps 729 mmHg 92%
14:00 +12°C° 0.2 mm 8 mps 730 mmHg 92%
15:00 +12°C° 0.1 mm 8 mps 730 mmHg 92%
16:00 +12°C° 0.1 mm 8 mps 730 mmHg 92%
17:00 +12°C° 0.1 mm 8 mps 731 mmHg 91%
18:00 +12°C° 0.1 mm 7 mps 731 mmHg 91%
19:00 +12°C° 0.1 mm 7 mps 732 mmHg 90%
20:00 +12°C° 0.1 mm 7 mps 732 mmHg 90%
21:00 +13°C° 0 mm 6 mps 732 mmHg 90%
22:00 +13°C° 0 mm 6 mps 732 mmHg 90%
23:00 +13°C° 0 mm 5 mps 732 mmHg 90%
Show more